Tracking 18980 objects as of 21-Feb-2018
HD Live streaming from Space Station
objects crossing your sky now

FENGYUN 1C DEB

Track FENGYUN 1C DEB now!
10-day predictions


NORAD ID: 30471
Int'l Code: 1999-025AGJ
Perigee: 825.3 km
Apogee: 963.6 km
Inclination: 99.2 °
Period: 102.7 minutes
Semi major axis: 7265 km
RCS: 0.033 m2 (small)
Launch date: May 10, 1999
Source: People's Republic of China (PRC)
Launch site: Taiyaun Space Center, China (TSC)

Note: This is SATELLITE DEBRIS
aabbcc
Your satellite tracking list
Your tracking list is empty




NASA's NSSDC Master Catalog

Two Line Element Set (TLE):
1 30471U 99025AGJ 18051.07928734  .00000801  00000-0  53553-3 0  9998
2 30471  99.2297  81.9081 0095181 250.7846 131.1216 14.01879481564045
Source of the keplerian elements: AFSPC